Change the Weather History Date:

Sunday, January 20, 2013

  Actual Average (KEKN) Record (KEKN)
Temperature  
Mean Temperature 36 °F 29 °F  
Max Temperature 44 °F 39 °F 70 °F (1951)
Min Temperature 28 °F 19 °F -24 °F (1984)
Degree Days  
Heating Degree Days 29 36  
Month to date heating degree days 720  
Since 1 July heating degree days 3011  
Cooling Degree Days 0 0  
Month to date cooling degree days 0  
Year to date cooling degree days 0  
Moisture  
Dew Point 17 °F    
Average Humidity 43    
Maximum Humidity 65    
Minimum Humidity 24    
Precipitation  
Precipitation 0.00 in 0.11 in 1.31 in (1979)
Month to date precipitation 2.09  
Year to date precipitation 2.09  
Snow  
Snow 0.00 in - - ()
Month to date snowfall  
Since 1 September snowfall  
Snow Depth -    
Sea Level Pressure  
Sea Level Pressure 30.02 in    
Wind  
Wind Speed 15 mph (WSW)    
Max Wind Speed 23 mph    
Max Gust Speed 32 mph    
Visibility 10 miles    
Events      
T = Trace of Precipitation, MM = Missing Value Source: NWS Daily Summary

Daily Weather History Graph

Daily Weather History Graph

Search for Another Location

Airport or City:

Trip Planner

Search our weather history database for the weather conditions in past years. The results will help you decide how hot, cold, wet, or windy it might be!

Date:

Astronomy

Jan. 20, 2013 Rise Set
Actual Time 7:36 AM EST 5:28 PM EST
Civil Twilight 7:07 AM EST 5:57 PM EST
Nautical Twilight 6:34 AM EST 6:30 PM EST
Astronomical Twilight 6:02 AM EST 7:02 PM EST
Moon 12:28 PM EST (1/20) 2:07 AM EST (1/20)
Length of Visible Light 10h 50m
Length of Day
9h 52m
Waxing Gibbous, 66% of the Moon is Illuminated
Jan 20
Waxing Gibbous
Jan 26
Full
Feb 3
Last Quarter
Feb 10
New
Feb 17
First Quarter

Hourly Weather History & Observations

Time (EST) Temp. Windchill Dew Point Humidity Pressure Visibility Wind Dir Wind Speed Gust Speed Precip Events Conditions
12:15 AM 44.6 °F 38.4 °F 14.0 °F 29% 29.95 in 10.0 mi SSW 12.7 mph 26.5 mph N/A   Clear
12:35 AM 44.6 °F 36.6 °F 14.0 °F 29% 29.95 in 10.0 mi SW 19.6 mph 26.5 mph N/A   Clear
12:55 AM 44.6 °F 37.4 °F 15.8 °F 31% 29.95 in 10.0 mi SSW 16.1 mph 24.2 mph N/A   Clear
1:15 AM 44.6 °F 37.2 °F 15.8 °F 31% 29.95 in 10.0 mi SW 17.3 mph 24.2 mph N/A   Clear
1:35 AM 44.6 °F 37.2 °F 17.6 °F 34% 29.95 in 10.0 mi SSW 17.3 mph 29.9 mph N/A   Clear
1:55 AM 44.6 °F 37.2 °F 17.6 °F 34% 29.95 in 10.0 mi SSW 17.3 mph 25.3 mph N/A   Clear
2:15 AM 44.6 °F 37.4 °F 19.4 °F 37% 29.95 in 10.0 mi SSW 16.1 mph 24.2 mph N/A   Clear
2:35 AM 42.8 °F 35.1 °F 19.4 °F 39% 29.95 in 10.0 mi SSW 16.1 mph 26.5 mph N/A   Clear
2:55 AM 42.8 °F 35.4 °F 21.2 °F 42% 29.95 in 10.0 mi SSW 15.0 mph 25.3 mph N/A   Clear
3:15 AM 42.8 °F 36.2 °F 23.0 °F 46% 29.95 in 10.0 mi SSW 12.7 mph 23.0 mph N/A   Clear
3:35 AM 42.8 °F 35.4 °F 23.0 °F 46% 29.95 in 10.0 mi SW 15.0 mph 23.0 mph N/A   Clear
3:55 AM 42.8 °F 35.4 °F 23.0 °F 46% 29.94 in 10.0 mi SW 15.0 mph 24.2 mph N/A   Clear
4:15 AM 42.8 °F 34.8 °F 26.6 °F 53% 29.93 in 10.0 mi SW 17.3 mph 27.6 mph N/A   Clear
4:35 AM 42.8 °F 35.1 °F 26.6 °F 53% 29.93 in 10.0 mi SW 16.1 mph 28.8 mph N/A   Clear
4:55 AM 42.8 °F 34.8 °F 26.6 °F 53% 29.93 in 10.0 mi SW 17.3 mph 26.5 mph N/A   Clear
5:15 AM 42.8 °F 34.8 °F 28.4 °F 57% 29.93 in 10.0 mi SW 17.3 mph 26.5 mph N/A   Clear
5:35 AM 42.8 °F 34.5 °F 28.4 °F 57% 29.93 in 10.0 mi SW 18.4 mph 24.2 mph N/A   Clear
5:55 AM 42.8 °F 34.3 °F 28.4 °F 57% 29.93 in 10.0 mi SW 19.6 mph 25.3 mph N/A   Clear
6:15 AM 42.8 °F 34.3 °F 28.4 °F 57% 29.94 in 10.0 mi SW 19.6 mph 26.5 mph N/A   Clear
6:35 AM 42.8 °F 34.5 °F 28.4 °F 57% 29.95 in 10.0 mi SW 18.4 mph 26.5 mph N/A   Scattered Clouds
6:55 AM 42.8 °F 34.8 °F 30.2 °F 61% 29.95 in 10.0 mi WSW 17.3 mph 24.2 mph N/A   Mostly Cloudy
7:15 AM 42.8 °F 34.5 °F 30.2 °F 61% 29.96 in 10.0 mi WSW 18.4 mph 26.5 mph N/A   Overcast
7:35 AM 42.8 °F 35.4 °F 30.2 °F 61% 29.97 in 10.0 mi WSW 15.0 mph 25.3 mph N/A   Overcast
7:55 AM 41.0 °F 31.9 °F 30.2 °F 65% 29.96 in 10.0 mi SW 19.6 mph 25.3 mph N/A   Overcast
8:15 AM 41.0 °F 33.1 °F 30.2 °F 65% 29.97 in 10.0 mi WSW 15.0 mph 26.5 mph N/A   Scattered Clouds
8:35 AM 41.0 °F 31.4 °F 30.2 °F 65% 29.97 in 10.0 mi SW 21.9 mph 29.9 mph N/A   Scattered Clouds
8:55 AM 42.8 °F 34.0 °F 30.2 °F 61% 29.98 in 10.0 mi SW 20.7 mph 26.5 mph N/A   Mostly Cloudy
9:15 AM 42.8 °F 34.5 °F 30.2 °F 61% 29.98 in 10.0 mi SW 18.4 mph 28.8 mph N/A   Scattered Clouds
9:35 AM 42.8 °F 34.8 °F 30.2 °F 61% 29.99 in 10.0 mi WSW 17.3 mph 29.9 mph N/A   Mostly Cloudy
9:55 AM 42.8 °F 35.8 °F 30.2 °F 61% 30.01 in 10.0 mi West 13.8 mph 32.2 mph N/A   Mostly Cloudy
10:15 AM 42.8 °F 34.8 °F 28.4 °F 57% 30.01 in 10.0 mi West 17.3 mph 31.1 mph N/A   Mostly Cloudy
10:35 AM 42.8 °F 34.3 °F 28.4 °F 57% 30.01 in 10.0 mi WSW 19.6 mph 28.8 mph N/A   Mostly Cloudy
10:55 AM 44.6 °F 35.9 °F 30.2 °F 57% 30.02 in 10.0 mi West 23.0 mph 31.1 mph N/A   Mostly Cloudy
11:15 AM 41.0 °F 33.5 °F 24.8 °F 53% 30.02 in 10.0 mi WNW 13.8 mph 24.2 mph N/A   Partly Cloudy
11:55 AM 42.8 °F 34.0 °F 21.2 °F 42% 30.02 in 10.0 mi West 20.7 mph 28.8 mph N/A   Clear
12:15 PM 42.8 °F 36.2 °F 19.4 °F 39% 30.01 in 10.0 mi WNW 12.7 mph 23.0 mph N/A   Clear
12:35 PM 41.0 °F 31.9 °F 15.8 °F 36% 30.01 in 10.0 mi West 19.6 mph 25.3 mph N/A   Clear
12:55 PM 41.0 °F 32.2 °F 14.0 °F 33% 30.02 in 10.0 mi WNW 18.4 mph 27.6 mph N/A   Clear
1:15 PM 41.0 °F 31.9 °F 10.4 °F 29% 30.02 in 10.0 mi West 19.6 mph 31.1 mph N/A   Clear
1:35 PM 41.0 °F 32.5 °F 10.4 °F 29% 30.02 in 10.0 mi WSW 17.3 mph 25.3 mph N/A   Clear
1:55 PM 39.2 °F 30.2 °F 12.2 °F 33% 30.03 in 10.0 mi WNW 17.3 mph 23.0 mph N/A   Clear
2:15 PM 39.2 °F 33.0 °F 8.6 °F 28% 30.03 in 10.0 mi WNW 9.2 mph 24.2 mph N/A   Clear
2:35 PM 39.2 °F 32.0 °F 5.0 °F 24% 30.04 in 10.0 mi West 11.5 mph 21.9 mph N/A   Clear
2:55 PM 37.4 °F 28.5 °F 5.0 °F 26% 30.05 in 10.0 mi WNW 15.0 mph 23.0 mph N/A   Clear
3:15 PM 37.4 °F 31.4 °F 5.0 °F 26% 30.05 in 10.0 mi WNW 8.1 mph 20.7 mph N/A   Clear
3:35 PM 37.4 °F 28.9 °F 5.0 °F 26% 30.05 in 10.0 mi West 13.8 mph 17.3 mph N/A   Clear
3:55 PM 37.4 °F 28.2 °F 3.2 °F 24% 30.06 in 10.0 mi WSW 16.1 mph 24.2 mph N/A   Clear
4:15 PM 37.4 °F 30.3 °F 3.2 °F 24% 30.07 in 10.0 mi West 10.4 mph 19.6 mph N/A   Clear
4:35 PM 35.6 °F 29.9 °F 3.2 °F 26% 30.07 in 10.0 mi WNW 6.9 mph - N/A   Clear
4:55 PM 35.6 °F 29.9 °F 5.0 °F 28% 30.07 in 10.0 mi West 6.9 mph - N/A   Clear
5:15 PM 35.6 °F 28.6 °F 5.0 °F 28% 30.07 in 10.0 mi WNW 9.2 mph - N/A   Clear
5:35 PM 33.8 °F 26.4 °F 5.0 °F 30% 30.07 in 10.0 mi West 9.2 mph - N/A   Clear
5:55 PM 33.8 °F 27.7 °F 6.8 °F 32% 30.09 in 10.0 mi West 6.9 mph - N/A   Clear
6:15 PM 33.8 °F 27.7 °F 6.8 °F 32% 30.09 in 10.0 mi West 6.9 mph - N/A   Clear
6:35 PM 32.0 °F 25.6 °F 8.6 °F 38% 30.09 in 10.0 mi West 6.9 mph - N/A   Clear
6:55 PM 32.0 °F - 6.8 °F 35% 30.09 in 10.0 mi Calm Calm - N/A   Clear
7:15 PM 32.0 °F 27.5 °F 8.6 °F 38% 30.10 in 10.0 mi WNW 4.6 mph - N/A   Clear
7:35 PM 32.0 °F 25.6 °F 8.6 °F 38% 30.09 in 10.0 mi West 6.9 mph - N/A   Clear
7:55 PM 32.0 °F 26.4 °F 6.8 °F 35% 30.10 in 10.0 mi WNW 5.8 mph - N/A   Clear
8:15 PM 32.0 °F 25.6 °F 8.6 °F 38% 30.10 in 10.0 mi WNW 6.9 mph - N/A   Partly Cloudy
8:35 PM 32.0 °F 24.8 °F 8.6 °F 38% 30.11 in 10.0 mi West 8.1 mph - N/A   Partly Cloudy
8:55 PM 32.0 °F 26.4 °F 10.4 °F 41% 30.11 in 10.0 mi WNW 5.8 mph - N/A   Clear
9:15 PM 30.2 °F 26.7 °F 10.4 °F 44% 30.10 in 10.0 mi NW 3.5 mph - N/A   Partly Cloudy
9:35 PM 30.2 °F 26.7 °F 10.4 °F 44% 30.10 in 10.0 mi WNW 3.5 mph - N/A   Clear
9:55 PM 30.2 °F 24.3 °F 10.4 °F 44% 30.11 in 10.0 mi West 5.8 mph - N/A   Clear
10:15 PM 30.2 °F 23.4 °F 10.4 °F 44% 30.11 in 10.0 mi West 6.9 mph - N/A   Clear
10:55 PM 28.4 °F 22.2 °F 10.4 °F 47% 30.10 in 10.0 mi West 5.8 mph - N/A   Clear
11:15 PM 28.4 °F 23.3 °F 12.2 °F 51% 30.10 in 10.0 mi WNW 4.6 mph - N/A   Clear
11:35 PM 28.4 °F - 10.4 °F 47% 30.10 in 10.0 mi Calm Calm - N/A   Clear
11:55 PM 28.4 °F 22.2 °F 12.2 °F 51% 30.10 in 10.0 mi West 5.8 mph - N/A   Clear